Preview of NWS' New Version of Forecast
This preview is not operational and should not be used for support decisions.

Regional Weather Roundup (RWR)

Issued by National Weather Service (NWS)

                            
000
ASUS42 KTBW 230216
RWRFL 
FLORIDA REGIONAL WEATHER ROUNDUP
NATIONAL WEATHER SERVICE TAMPA BAY RUSKIN FL
900 PM EST FRI FEB 22 2019

NOTE: "FAIR" INDICATES FEW OR NO CLOUDS BELOW 12,000 FEET WITH NO
SIGNIFICANT WEATHER AND/OR OBSTRUCTIONS TO VISIBILITY.

FLZ001>010-012>015-112-114-115-230300-
PANHANDLE FLORIDA
  
CITY           SKY/WX    TMP DP  RH WIND       PRES   REMARKS
PENSACOLA      FOG       68  66  93 E9        30.11R VSB 1/2          
PENSACOLA NAS  FOG       67  67 100 E8        30.10R VSB 1/4          
MILTON NAS     FOG       68  68 100 SE12      30.11  VSB 1/2          
CRESTVIEW      CLOUDY    71  68  90 SE5       30.14R                  
DUKE FIELD     FOG       69  69 100 SE6       30.12R VSB 1/4          
VALPARAISO     FOG       68  68 100 SE9       30.12R VSB 3/4          
MARY ESTHER    FOG       67  66  97 SE6       30.11R VSB 1/4          
PANAMA CITY    CLOUDY    71  68  90 SE7       30.12R                  
TYNDALL AFB    CLOUDY    70  68  94 SE12      30.12R                  
APALACHICOLA   CLOUDY    68  66  93 E5        30.13S                  

STATION/POSITION SKY/WX   TEMP    WIND        PRES    WAVE   SWELL
                          AIR SEA DIR/SP/G            HT/PER HT/PER
                          (F)     (DEG/KT/KT) (MB)    (FT/S) (FT/S)
30.1N   87.6W              67     110/  8/ 10 1019.2R   3/ 6   2/ 6
29.2N   88.2W                     130/ 12/ 14 1018.4R   3/ 6   2/ 6
PANAMA CITY BEAC           67 66  130/ 13/ 15 1020.5R
TOWER C                    68     140/ 12/ 12 1020.4F

$$
FLZ011-016>038-118-127-128-134-139-239-230300-
NORTH FLORIDA
  
CITY           SKY/WX    TMP DP  RH WIND       PRES   REMARKS
MARIANNA       MOCLDY    70  67  90 CALM      30.13R                  
TALLAHASSEE    CLOUDY    70  69  97 SE6       30.14F                  
PERRY          FAIR      67  67  97 CALM      30.16S                  
LIVE OAK       PTCLDY    70  68  94 CALM      30.16S                  
CROSS CITY     FAIR      67  65  91 CALM      30.17R                  
LAKE CITY      CLOUDY    73  64  73 CALM      30.17S                  
GAINESVILLE    CLOUDY    77  67  71 E5        30.19R                  
WILLISTON        N/A    N/A N/A N/A MISG        N/A                   
PALATKA        CLOUDY   N/A N/A N/A SE8       30.18S                  
MAYPORT NAS    MOCLDY    72  66  81 S12       30.17S                  
JACKSONVILLE   MOCLDY    73  64  73 SE8       30.16S                  
JAX NAS        FAIR      76  64  66 S6        30.19R                  
JAX CECIL      MOCLDY    73  66  78 VRB5      30.18R                  
FERNANDINA BEA MOCLDY    69  65  86 SE3       30.18R                  
ST AUGUSTINE   CLOUDY    69  68  96 SE8       30.20R                  
PALM COAST     FAIR      68  66  94 E5        30.19R                  

STATION/POSITION SKY/WX   TEMP    WIND        PRES    WAVE   SWELL
                          AIR SEA DIR/SP/G            HT/PER HT/PER
                          (F)     (DEG/KT/KT) (MB)    (FT/S) (FT/S)
SHELL POINT      NOT AVBL
KEATON BEACH               69      90/  2/  2 1021.3F
CEDAR KEY                  73      CALM  /  1 1021.6R
FERNANDINA                 71 66  140/  3/  5 1022.6R
30.7N   81.3W                 64                N/A     2/ 7
MAYPORT                    72 63  160/  4/  7 1021.9R
31.4N   80.9W              61 60   60/ 14/ 16 1022.7R   3/ 7   2/ 7
ST AUGUSTINE               67 61  150/  5/  6 1022.6R

$$
FLZ040-043>046-052-053-057-058-063-144-230300-
INTERIOR CENTRAL FLORIDA
  
CITY           SKY/WX    TMP DP  RH WIND       PRES   REMARKS
OCALA          MOCLDY    77  66  68 N3        30.18R                  
LEESBURG       FAIR      75  67  76 E5        30.18R                  
SANFORD        FAIR      73  70  90 E8        30.17S                  
ORLANDO EXEC   CLOUDY    76  70  82 SE10      30.18R                  
ORLANDO INTL   MOCLDY    75  70  84 E8        30.17R                  
KISSIMMEE      FAIR      76  70  82 E7        30.18R                  
WINTER HAVEN   FAIR      77  69  76 E9        30.17R                  
LAKELAND       CLEAR     73  66  78 W7        30.16R                  
BARTOW         MOCLDY    77  68  73 E8        30.15S                  
SEBRING        CLOUDY    75  70  84 E6        30.16R                  
OKEECHOBEE     FAIR      73  70  88 SE5       30.16S                  

$$
FLZ041-047-054-059-064-141-147-230300-
EAST CENTRAL FLORIDA
  
CITY           SKY/WX    TMP DP  RH WIND       PRES   REMARKS
DAYTONA BEACH  FAIR      72  70  93 E3        30.19R                  
DELAND         FAIR      72  68  88 E6        30.18R                  
NEW SMYRNA BEA PTCLDY    72  68  88 SE6       30.19S                  
JFK SPACE CTR  MOCLDY    71  69  94 SE5       30.18R                  
TITUSVILLE     MOCLDY    77  75  94 SE6       30.19R                  
CAPE CANAVERAL FAIR      70  69  96 SE3       30.17R                  
PATRICK AFB    FAIR      71  71 100 SE9       30.17R                  
MELBOURNE      MOCLDY    75  71  87 SE9       30.17R                  
VERO BEACH     FAIR      74  71  91 SE8       30.18R                  
FT PIERCE      FAIR      74  71  91 E7        30.17R                  

STATION/POSITION SKY/WX   TEMP    WIND        PRES    WAVE   SWELL
                          AIR SEA DIR/SP/G            HT/PER HT/PER
                          (F)     (DEG/KT/KT) (MB)    (FT/S) (FT/S)
28.5N   80.2W              72     150/  6/  6 1022.4R   3/ 8   2/ 8
28.9N   78.5W              76 76  130/ 10/ 12 1023.4R   4/ 8   3/ 8
TRIDENT PIER               70 70  110/  3/  5 1023.1R
28.4N   80.5W                 68                N/A     2/ 8

$$
FLZ050-056-061-142-242-148-248-149-249-151-251-155-255-
160-260-230300-
WEST CENTRAL FLORIDA
  
CITY           SKY/WX    TMP DP  RH WIND       PRES   REMARKS
CRYSTAL RIVER  FAIR      72  68  88 CALM      30.17S                  
INVERNESS      MOCLDY    73  72  94 CALM      30.18R                  
BROOKSVILLE    CLOUDY    74  69  85 NW5       30.18R                  
CLEARWATER AIR FAIR      72  68  88 N3        30.16R                  
ST PETE CLEARW FAIR      74  67  78 N5        30.16R                  
TAMPA INTL     FAIR      78  68  71 N7        30.17R                  
TAMPA EXEC     FAIR      73  68  83 NW3       30.17R                  
PLANT CITY     FAIR      75  68  78 NW3       30.18R                  
MACDILL AFB    FAIR      70  66  87 NW3       30.15R                  
PETER O KNIGHT CLOUDY    77  70  78 CALM      30.16R                  
ST PETERSBURG  FAIR      75  70  84 W3        30.14R                  
SARASOTA       FAIR      73  70  90 CALM      30.13R                  
VENICE         MOCLDY    73  72  94 CALM      30.15R                  

STATION/POSITION SKY/WX   TEMP    WIND        PRES    WAVE   SWELL
                          AIR SEA DIR/SP/G            HT/PER HT/PER
                          (F)     (DEG/KT/KT) (MB)    (FT/S) (FT/S)
27.3N   84.2W                 73                N/A     3/ 5
CLEARWATER BEACH                  360/  6/  6   N/A
MIDDLE TAMPA BAY           73      10/  2/  4 1021.2R
VENICE                     73 72  210/  3/  4 1020.8R

$$
FLZ066-069-070-075>078-162-262-165-265-230300-
SOUTHWEST FLORIDA AND KEYS
  
CITY           SKY/WX    TMP DP  RH WIND       PRES   REMARKS
PUNTA GORDA    MOCLDY    75  68  78 W5        30.16R                  
FT MYERS       MOCLDY    76  67  73 CALM      30.14R                  
SOUTHWEST INTL MOCLDY    75  68  78 CALM      30.15R                  
NAPLES         FAIR      77  71  82 CALM      30.14R                  
MARCO ISLAND   FAIR     N/A N/A N/A E3        30.15R                  
IMMOKALEE      CLOUDY    77  66  69 CALM      30.14R                  
MARATHON       FAIR      81  72  74 E8        30.12R                  
KEY WEST NAS   FAIR      79  72  79 E15       30.12R                  
KEY WEST INTL  FAIR      80  72  76 E15       30.12R                  

STATION/POSITION SKY/WX   TEMP    WIND        PRES    WAVE   SWELL
                          AIR SEA DIR/SP/G            HT/PER HT/PER
                          (F)     (DEG/KT/KT) (MB)    (FT/S) (FT/S)
NAPLES                     78 76   CALM  /  1 1020.8R
26.0N   85.6W              79 80  120/ 10/ 14 1019.4R   4/ 7   3/ 7
DRY TORTUGAS               78     110/ 11/ 12 1019.7R
SAND KEY                   78                 1019.8R
SOMBRERO KEY               78                 1019.2R
LONG KEY                   78 80  100/ 12/ 14 1020.0R
MOLASSES REEF              78 79  100/  9/ 11 1020.8

$$
FLZ067-068-071>074-168-172>174-230300-
SOUTHEAST FLORIDA 
  
CITY           SKY/WX    TMP DP  RH WIND       PRES   REMARKS
W PALM BEACH   FAIR      77  72  84 SE10      30.17R                  
BOCA RATON     PTCLDY    77  73  88 SE8G14    30.16R                  
FT LAUDER-EXEC LGT RAIN  79  76  90 E12       30.16R                  
FT LAUDERDALE  LGT RAIN  78  74  87 SE14      30.15R                  
POMPANO BEACH  FAIR      79  74  84 SE13      30.16S                  
PEMBROKE PINES MOCLDY    78  72  81 E8        30.17R                  
OPA LOCKA      MOCLDY    78  72  81 SE8       30.16R                  
MIAMI          FAIR      77  73  87 E8        30.15S                  
WEST KENDALL   FAIR      76  72  87 E7        30.15R                  
HOMESTEAD      FAIR      76  72  88 E5        30.14R                  

STATION/POSITION SKY/WX   TEMP    WIND        PRES    WAVE   SWELL
                          AIR SEA DIR/SP/G            HT/PER HT/PER
                          (F)     (DEG/KT/KT) (MB)    (FT/S) (FT/S)
PORT EVERGLADES            77     130/ 10/ 13 1021.2R
VIRGINIA KEY               78 80   90/  6/  8 1020.3R
LAKE WORTH                 78 78  140/ 13/ 15 1022.5R
FOWEY ROCKS                78 78   90/ 11/ 11 1021.5R
SETTLEMENT POINT           76     130/  9/ 10 1022.1R

$$